{"data":{"norad_id":59471,"epoch":"2026-05-25T04:39:08.648640Z","epoch_age_seconds":58466,"freshness":"FRESH","line1":"1 59471U 24068S   26145.19385010  .00000414  00000+0  24588-4 0  9990","line2":"2 59471  43.0041 318.9518 0001421 271.4628  88.6061 15.27573141120269","mean_motion":15.27573141,"eccentricity":0.0001421,"inclination_deg":43.0041,"raan_deg":318.9518,"arg_perigee_deg":271.4628,"mean_anomaly_deg":88.6061,"bstar":2.4588e-5,"rev_number":12026,"period_min":94.267171983485,"perigee_km":482.09465696726,"apogee_km":484.04461189277,"semimajor_km":6861.20663443,"source":"CELESTRAK","updated_at":"2026-05-25T13:38:18.951121Z"}}